VLG6PD LEBB-LFPO

Flight info

Callsign VLG6PD
Flight time 1h 9m
Altitude 28000
Route SSN L176 LUSEM DCT LULUT DCT TUDRA DCT BEVOL UT158 AMB
Aircraft A20N/M-SDE2E3FGHIRWXY/LB1

Departure

Time 2026-05-03 21:53
Airport Bilbao Airport (LEBB)

Arrival

Time 2026-05-03 23:03
Airport Paris-Orly Airport (LFPO)
Time Latitude Longitude Altitude Speed Heading
2026-05-03 21:25 43.30376 -2.90522 130 ft 0 kts 26°
2026-05-03 21:45 43.30362 -2.90532 125 ft 4 kts 26°
2026-05-03 21:45 43.30338 -2.90550 125 ft 4 kts 40°
2026-05-03 21:46 43.30327 -2.90565 125 ft 1 kts 56°
2026-05-03 21:48 43.30323 -2.90543 125 ft 5 kts 140°
2026-05-03 21:49 43.30248 -2.90534 128 ft 12 kts 169°
2026-05-03 21:49 43.30174 -2.90557 127 ft 11 kts 203°
2026-05-03 21:49 43.30140 -2.90566 127 ft 7 kts 174°
2026-05-03 21:49 43.30078 -2.90469 124 ft 17 kts 114°
2026-05-03 21:50 43.30028 -2.90330 126 ft 16 kts 116°
2026-05-03 21:50 43.29977 -2.90197 125 ft 16 kts 118°
2026-05-03 21:50 43.29927 -2.90063 122 ft 16 kts 117°
2026-05-03 21:50 43.29876 -2.89925 124 ft 16 kts 117°
2026-05-03 21:51 43.29825 -2.89786 126 ft 16 kts 118°
2026-05-03 21:51 43.29778 -2.89659 124 ft 14 kts 116°
2026-05-03 21:51 43.29738 -2.89553 124 ft 10 kts 117°
2026-05-03 21:51 43.29692 -2.89492 126 ft 9 kts 178°
2026-05-03 21:52 43.29656 -2.89546 124 ft 8 kts 246°
2026-05-03 21:52 43.29640 -2.89612 126 ft 3 kts 253°
2026-05-03 21:52 43.29626 -2.89699 128 ft 14 kts 265°
2026-05-03 21:52 43.29675 -2.89889 126 ft 57 kts 295°
2026-05-03 21:53 43.30114 -2.91068 128 ft 146 kts 297°
2026-05-03 21:53 43.30603 -2.92360 628 ft 149 kts 297°
2026-05-03 21:53 43.31079 -2.93597 1226 ft 155 kts 297°
2026-05-03 21:54 43.32780 -2.97942 2927 ft 207 kts 310°
2026-05-03 21:54 43.33796 -2.99381 4012 ft 210 kts 317°
2026-05-03 21:54 43.34883 -3.00727 5010 ft 214 kts 318°
2026-05-03 21:55 43.36013 -3.02092 5975 ft 218 kts 318°
2026-05-03 21:55 43.37168 -3.03490 6856 ft 224 kts 317°
2026-05-03 21:55 43.38516 -3.04755 7389 ft 249 kts 330°
2026-05-03 21:55 43.40221 -3.05557 7942 ft 271 kts 351°
2026-05-03 21:56 43.42120 -3.05216 8759 ft 286 kts 23°
2026-05-03 21:56 43.43664 -3.03460 9680 ft 295 kts 56°
2026-05-03 21:56 43.44388 -3.00802 10413 ft 307 kts 82°
2026-05-03 21:56 43.44448 -2.97765 10807 ft 330 kts 96°
2026-05-03 21:57 43.44146 -2.94521 11179 ft 352 kts 101°
2026-05-03 21:57 43.43730 -2.91137 11764 ft 367 kts 101°
2026-05-03 21:57 43.43336 -2.87615 12561 ft 375 kts 99°
2026-05-03 21:57 43.43013 -2.84022 13440 ft 380 kts 98°
2026-05-03 21:58 43.42757 -2.80367 14209 ft 387 kts 97°
2026-05-03 21:58 43.42552 -2.76705 15032 ft 391 kts 96°
2026-05-03 21:58 43.42368 -2.72915 15875 ft 394 kts 96°
2026-05-03 21:58 43.42198 -2.69182 16679 ft 398 kts 96°
2026-05-03 21:59 43.42025 -2.65363 17466 ft 403 kts 97°
2026-05-03 21:59 43.41847 -2.61496 18222 ft 408 kts 97°
2026-05-03 21:59 43.41661 -2.57585 18888 ft 412 kts 97°
2026-05-03 21:59 43.41469 -2.53635 19559 ft 415 kts 97°
2026-05-03 22:00 43.41273 -2.49653 20227 ft 419 kts 97°
2026-05-03 22:00 43.41074 -2.45643 20882 ft 423 kts 97°
2026-05-03 22:00 43.41146 -2.41570 21534 ft 431 kts 86°
2026-05-03 22:00 43.41876 -2.37531 22180 ft 441 kts 71°
2026-05-03 22:01 43.43367 -2.33810 22806 ft 449 kts 58°
2026-05-03 22:01 43.45256 -2.30364 23416 ft 454 kts 52°
2026-05-03 22:01 43.47356 -2.27081 23923 ft 458 kts 49°
2026-05-03 22:01 43.49554 -2.23868 24379 ft 463 kts 48°
2026-05-03 22:02 43.51795 -2.20645 24785 ft 468 kts 48°
2026-05-03 22:02 43.54050 -2.17374 25204 ft 473 kts 48°
2026-05-03 22:02 43.56312 -2.14039 25623 ft 478 kts 49°
2026-05-03 22:02 43.58572 -2.10654 26030 ft 482 kts 49°
2026-05-03 22:03 43.60838 -2.07223 26445 ft 486 kts 49°
2026-05-03 22:03 43.63112 -2.03755 26892 ft 489 kts 50°
2026-05-03 22:03 43.65405 -2.00244 27296 ft 493 kts 50°
2026-05-03 22:03 43.67708 -1.96712 27657 ft 497 kts 50°
2026-05-03 22:04 43.70035 -1.93140 27918 ft 501 kts 50°
2026-05-03 22:04 43.72373 -1.89549 27936 ft 501 kts 50°
2026-05-03 22:04 43.74704 -1.85967 27951 ft 502 kts 50°
2026-05-03 22:04 43.77008 -1.82423 27953 ft 502 kts 50°
2026-05-03 22:05 43.79325 -1.78856 27952 ft 502 kts 50°
2026-05-03 22:05 43.81658 -1.75259 27953 ft 503 kts 50°
2026-05-03 22:05 43.83984 -1.71669 27953 ft 502 kts 50°
2026-05-03 22:05 43.86324 -1.68051 27954 ft 505 kts 50°
2026-05-03 22:06 43.88690 -1.64387 27953 ft 515 kts 50°
2026-05-03 22:06 43.91086 -1.60671 27950 ft 519 kts 50°
2026-05-03 22:06 43.93490 -1.56938 27949 ft 519 kts 50°
2026-05-03 22:06 43.95892 -1.53207 27950 ft 519 kts 50°
2026-05-03 22:07 43.98306 -1.49451 27939 ft 520 kts 50°
2026-05-03 22:07 44.00710 -1.45707 27946 ft 520 kts 50°
2026-05-03 22:07 44.03126 -1.41938 27952 ft 520 kts 50°
2026-05-03 22:07 44.05527 -1.38188 27947 ft 518 kts 50°
2026-05-03 22:08 44.07918 -1.34449 27949 ft 518 kts 50°
2026-05-03 22:08 44.10299 -1.30719 27951 ft 517 kts 50°
2026-05-03 22:08 44.12698 -1.26955 27949 ft 517 kts 50°
2026-05-03 22:08 44.15083 -1.23209 27948 ft 517 kts 50°
2026-05-03 22:09 44.17475 -1.19448 27948 ft 517 kts 50°
2026-05-03 22:09 44.19858 -1.15694 27952 ft 517 kts 50°
2026-05-03 22:09 44.22236 -1.11945 27952 ft 518 kts 50°
2026-05-03 22:10 44.27002 -1.04414 27953 ft 518 kts 50°
2026-05-03 22:10 44.29385 -1.00642 27954 ft 517 kts 50°
2026-05-03 22:10 44.31763 -0.96872 27951 ft 517 kts 50°
2026-05-03 22:10 44.34142 -0.93095 27958 ft 517 kts 50°
2026-05-03 22:11 44.36517 -0.89321 27957 ft 517 kts 50°
2026-05-03 22:11 44.39045 -0.85742 27955 ft 518 kts 41°
2026-05-03 22:11 44.41961 -0.82751 27972 ft 518 kts 32°
2026-05-03 22:11 44.45024 -0.80217 27955 ft 518 kts 30°
2026-05-03 22:12 44.48181 -0.77801 27960 ft 518 kts 28°
2026-05-03 22:12 44.51415 -0.75434 27947 ft 518 kts 26°
2026-05-03 22:12 44.54578 -0.73163 27959 ft 518 kts 26°
2026-05-03 22:12 44.57791 -0.70863 27959 ft 518 kts 26°
2026-05-03 22:13 44.60999 -0.68555 27963 ft 519 kts 26°
2026-05-03 22:13 44.64206 -0.66233 27967 ft 518 kts 27°
2026-05-03 22:13 44.67397 -0.63908 27965 ft 517 kts 27°
2026-05-03 22:13 44.70587 -0.61572 27964 ft 516 kts 27°
2026-05-03 22:14 44.73767 -0.59237 27964 ft 516 kts 27°
2026-05-03 22:14 44.76950 -0.56895 27966 ft 516 kts 27°
2026-05-03 22:14 44.80130 -0.54552 27967 ft 516 kts 27°
2026-05-03 22:14 44.83309 -0.52207 27966 ft 516 kts 27°
2026-05-03 22:15 44.86504 -0.49848 27965 ft 516 kts 27°
2026-05-03 22:15 44.89683 -0.47497 27964 ft 516 kts 27°
2026-05-03 22:15 44.92869 -0.45140 27964 ft 516 kts 27°
2026-05-03 22:15 44.96061 -0.42774 27964 ft 516 kts 27°
2026-05-03 22:16 44.99182 -0.40459 27966 ft 516 kts 27°
2026-05-03 22:16 45.02382 -0.38083 27967 ft 515 kts 28°
2026-05-03 22:16 45.05551 -0.35726 27962 ft 514 kts 28°
2026-05-03 22:16 45.08718 -0.33367 27966 ft 514 kts 28°
2026-05-03 22:17 45.11877 -0.31011 27965 ft 514 kts 28°
2026-05-03 22:17 45.15048 -0.28643 27967 ft 514 kts 28°
2026-05-03 22:17 45.18217 -0.26274 27970 ft 514 kts 28°
2026-05-03 22:17 45.21370 -0.23914 27973 ft 514 kts 28°
2026-05-03 22:18 45.24539 -0.21540 27968 ft 514 kts 29°
2026-05-03 22:18 45.27712 -0.19159 27968 ft 514 kts 29°
2026-05-03 22:18 45.30870 -0.16786 27971 ft 514 kts 29°
2026-05-03 22:18 45.34031 -0.14407 27972 ft 514 kts 29°
2026-05-03 22:19 45.37200 -0.12020 27968 ft 514 kts 29°
2026-05-03 22:19 45.40367 -0.09632 27975 ft 515 kts 29°
2026-05-03 22:19 45.43539 -0.07236 27975 ft 516 kts 29°
2026-05-03 22:19 45.46677 -0.04863 27974 ft 517 kts 29°
2026-05-03 22:20 45.49853 -0.02459 27965 ft 517 kts 29°
2026-05-03 22:20 45.53032 -0.00048 27956 ft 516 kts 28°
2026-05-03 22:20 45.56195 0.02354 27976 ft 514 kts 28°
2026-05-03 22:20 45.59352 0.04752 27990 ft 514 kts 29°
2026-05-03 22:21 45.62519 0.07162 27979 ft 516 kts 29°
2026-05-03 22:21 45.65688 0.09577 27976 ft 517 kts 29°
2026-05-03 22:21 45.68875 0.12009 27977 ft 518 kts 29°
2026-05-03 22:21 45.72054 0.14438 27994 ft 518 kts 29°
2026-05-03 22:22 45.75230 0.16867 27995 ft 518 kts 29°
2026-05-03 22:22 45.78416 0.19307 27989 ft 518 kts 29°
2026-05-03 22:22 45.81602 0.21751 27997 ft 520 kts 29°
2026-05-03 22:22 45.84790 0.24200 28000 ft 521 kts 29°
2026-05-03 22:23 45.87981 0.26653 27981 ft 521 kts 29°
2026-05-03 22:23 45.91132 0.29080 27994 ft 521 kts 29°
2026-05-03 22:23 45.94379 0.31583 27985 ft 521 kts 29°
2026-05-03 22:24 46.00740 0.36497 27984 ft 524 kts 29°
2026-05-03 22:24 46.03957 0.38987 27982 ft 527 kts 29°
2026-05-03 22:24 46.07185 0.41490 27988 ft 526 kts 29°
2026-05-03 22:24 46.10396 0.43981 27980 ft 523 kts 29°
2026-05-03 22:25 46.13601 0.46472 27973 ft 522 kts 29°
2026-05-03 22:25 46.16792 0.48955 27988 ft 521 kts 29°
2026-05-03 22:25 46.19994 0.51450 27971 ft 523 kts 29°
2026-05-03 22:25 46.23203 0.53954 27981 ft 525 kts 29°
2026-05-03 22:26 46.26422 0.56469 27981 ft 526 kts 29°
2026-05-03 22:26 46.29646 0.58992 27979 ft 526 kts 29°
2026-05-03 22:26 46.32864 0.61513 27965 ft 526 kts 29°
2026-05-03 22:26 46.36087 0.64041 27972 ft 526 kts 29°
2026-05-03 22:27 46.39306 0.66570 27979 ft 527 kts 28°
2026-05-03 22:27 46.42534 0.69109 27978 ft 528 kts 29°
2026-05-03 22:27 46.45762 0.71651 27972 ft 529 kts 29°
2026-05-03 22:27 46.48999 0.74204 27969 ft 529 kts 29°
2026-05-03 22:28 46.52272 0.76675 27971 ft 529 kts 23°
2026-05-03 22:28 46.55704 0.78407 27972 ft 528 kts 14°
2026-05-03 22:28 46.59256 0.79779 27974 ft 528 kts 12°
2026-05-03 22:28 46.62844 0.81008 27949 ft 528 kts 11°
2026-05-03 22:29 46.66434 0.82150 27966 ft 527 kts 10°
2026-05-03 22:29 46.70023 0.83257 27972 ft 527 kts 10°
2026-05-03 22:29 46.73602 0.84354 27970 ft 526 kts 10°
2026-05-03 22:29 46.77194 0.85462 27975 ft 526 kts 10°
2026-05-03 22:30 46.80780 0.86580 27969 ft 527 kts 10°
2026-05-03 22:30 46.84363 0.87708 27964 ft 527 kts 11°
2026-05-03 22:30 46.87948 0.88845 27975 ft 527 kts 11°
2026-05-03 22:30 46.91520 0.89982 27972 ft 527 kts 11°
2026-05-03 22:31 46.95108 0.91128 27971 ft 527 kts 11°
2026-05-03 22:31 46.98694 0.92274 27977 ft 527 kts 11°
2026-05-03 22:31 47.02252 0.93412 27973 ft 528 kts 11°
2026-05-03 22:31 47.05803 0.94543 27970 ft 529 kts 11°
2026-05-03 22:32 47.09418 0.95695 27968 ft 529 kts 11°
2026-05-03 22:32 47.13024 0.96846 27971 ft 529 kts 11°
2026-05-03 22:32 47.16620 0.97995 27970 ft 529 kts 11°
2026-05-03 22:32 47.20211 0.99144 27976 ft 529 kts 10°
2026-05-03 22:33 47.23810 1.00298 27811 ft 524 kts 11°
2026-05-03 22:33 47.27311 1.01423 27244 ft 512 kts 11°
2026-05-03 22:33 47.30802 1.02544 26560 ft 512 kts 11°
2026-05-03 22:33 47.33080 1.03277 26219 ft 500 kts 11°
2026-05-03 22:34 47.37531 1.04713 25972 ft 479 kts 11°
2026-05-03 22:34 47.40726 1.05745 25965 ft 463 kts 10°
2026-05-03 22:34 47.43791 1.06941 25928 ft 459 kts 16°
2026-05-03 22:34 47.46820 1.08417 25498 ft 457 kts 18°
2026-05-03 22:35 47.49829 1.09961 25017 ft 456 kts 18°
2026-05-03 22:35 47.51813 1.10980 24695 ft 455 kts 18°
2026-05-03 22:35 47.55803 1.13016 24059 ft 451 kts 18°
2026-05-03 22:35 47.58753 1.14517 23568 ft 447 kts 18°
2026-05-03 22:36 47.61694 1.16014 23013 ft 444 kts 18°
2026-05-03 22:36 47.64576 1.17482 22438 ft 441 kts 18°
2026-05-03 22:36 47.67464 1.18953 21890 ft 437 kts 18°
2026-05-03 22:36 47.70332 1.20416 21336 ft 434 kts 18°
2026-05-03 22:37 47.72255 1.21398 20980 ft 431 kts 18°
2026-05-03 22:37 47.75072 1.22837 20452 ft 427 kts 17°
2026-05-03 22:37 47.77869 1.24268 19925 ft 423 kts 17°
2026-05-03 22:37 47.80638 1.25686 19428 ft 419 kts 17°
2026-05-03 22:38 47.83348 1.27075 18902 ft 415 kts 17°
2026-05-03 22:39 47.99645 1.35461 15597 ft 391 kts 17°
2026-05-03 22:39 48.02208 1.36785 15082 ft 387 kts 17°
2026-05-03 22:40 48.04705 1.38092 14574 ft 383 kts 19°
2026-05-03 22:40 48.07075 1.39881 14072 ft 380 kts 31°
2026-05-03 22:40 48.09284 1.42025 13548 ft 377 kts 33°
2026-05-03 22:40 48.11435 1.44208 13098 ft 370 kts 33°
2026-05-03 22:41 48.13532 1.46346 12967 ft 360 kts 33°
2026-05-03 22:41 48.15605 1.48455 12936 ft 360 kts 33°
2026-05-03 22:41 48.17674 1.50555 12596 ft 360 kts 33°
2026-05-03 22:41 48.19746 1.52657 12017 ft 359 kts 33°
2026-05-03 22:42 48.21810 1.54750 11432 ft 358 kts 33°
2026-05-03 22:42 48.23866 1.56837 10872 ft 356 kts 33°
2026-05-03 22:42 48.25913 1.58914 10329 ft 354 kts 33°
2026-05-03 22:42 48.27933 1.60964 10025 ft 344 kts 33°
2026-05-03 22:43 48.29878 1.62938 9968 ft 341 kts 33°
2026-05-03 22:43 48.31844 1.64935 9956 ft 328 kts 33°
2026-05-03 22:43 48.33688 1.66810 9957 ft 311 kts 33°
2026-05-03 22:43 48.35345 1.68824 9962 ft 306 kts 50°
2026-05-03 22:44 48.36431 1.71566 9973 ft 309 kts 68°
2026-05-03 22:44 48.37232 1.74636 9967 ft 327 kts 71°
2026-05-03 22:44 48.38037 1.77957 9967 ft 338 kts 71°
2026-05-03 22:44 48.38838 1.81292 9970 ft 340 kts 71°
2026-05-03 22:45 48.39638 1.84627 9968 ft 341 kts 71°
2026-05-03 22:45 48.40444 1.87990 9962 ft 338 kts 71°
2026-05-03 22:45 48.41212 1.91184 9957 ft 317 kts 71°
2026-05-03 22:45 48.41949 1.94242 9966 ft 307 kts 71°
2026-05-03 22:46 48.42684 1.97297 9975 ft 317 kts 71°
2026-05-03 22:46 48.43421 2.00389 9966 ft 311 kts 72°
2026-05-03 22:46 48.43916 2.02462 9964 ft 308 kts 71°
2026-05-03 22:46 48.44149 2.03438 9968 ft 307 kts 72°
2026-05-03 22:47 48.46215 2.12109 9208 ft 306 kts 72°
2026-05-03 22:47 48.46932 2.15129 8714 ft 306 kts 72°
2026-05-03 22:47 48.47647 2.18150 8232 ft 305 kts 72°
2026-05-03 22:48 48.48349 2.21121 7994 ft 297 kts 72°
2026-05-03 22:48 48.49039 2.24040 7971 ft 295 kts 72°
2026-05-03 22:48 48.49732 2.26973 7862 ft 296 kts 72°
2026-05-03 22:48 48.50421 2.29900 7454 ft 297 kts 72°
2026-05-03 22:49 48.51110 2.32828 7022 ft 295 kts 72°
2026-05-03 22:49 48.51795 2.35748 6582 ft 294 kts 72°
2026-05-03 22:49 48.52474 2.38651 6135 ft 293 kts 72°
2026-05-03 22:49 48.53148 2.41547 5675 ft 292 kts 72°
2026-05-03 22:50 48.53817 2.44430 5224 ft 291 kts 72°
2026-05-03 22:50 48.54481 2.47300 4772 ft 289 kts 72°
2026-05-03 22:50 48.55140 2.50164 4302 ft 288 kts 72°
2026-05-03 22:50 48.55786 2.52983 4023 ft 280 kts 72°
2026-05-03 22:51 48.56415 2.55725 3994 ft 274 kts 72°
2026-05-03 22:51 48.57040 2.58446 3994 ft 276 kts 72°
2026-05-03 22:51 48.57670 2.61190 3988 ft 277 kts 72°
2026-05-03 22:51 48.58300 2.63940 3992 ft 278 kts 72°
2026-05-03 22:52 48.58923 2.66655 3984 ft 265 kts 72°
2026-05-03 22:52 48.59504 2.69190 3982 ft 247 kts 72°
2026-05-03 22:52 48.60065 2.71633 3988 ft 246 kts 72°
2026-05-03 22:52 48.60624 2.74072 3996 ft 246 kts 72°
2026-05-03 22:53 48.61187 2.76523 3991 ft 246 kts 72°
2026-05-03 22:53 48.61749 2.78972 3995 ft 246 kts 72°
2026-05-03 22:53 48.62310 2.81387 3996 ft 247 kts 69°
2026-05-03 22:53 48.63285 2.83540 3833 ft 247 kts 39°
2026-05-03 22:54 48.64785 2.84674 3413 ft 247 kts
2026-05-03 22:54 48.66476 2.84610 3069 ft 241 kts 346°
2026-05-03 22:54 48.68058 2.84050 2975 ft 233 kts 342°
2026-05-03 22:54 48.69627 2.83424 2994 ft 234 kts 342°
2026-05-03 22:55 48.71205 2.82787 2993 ft 235 kts 342°
2026-05-03 22:55 48.72785 2.82147 2994 ft 235 kts 342°
2026-05-03 22:55 48.74365 2.81507 2992 ft 235 kts 342°
2026-05-03 22:55 48.75905 2.80710 2978 ft 232 kts 325°
2026-05-03 22:56 48.76979 2.79025 2996 ft 223 kts 295°
2026-05-03 22:56 48.77526 2.76840 2996 ft 221 kts 283°
2026-05-03 22:56 48.77934 2.74587 2995 ft 222 kts 282°
2026-05-03 22:56 48.78273 2.72324 2993 ft 219 kts 274°
2026-05-03 22:57 48.78238 2.70156 3011 ft 200 kts 259°
2026-05-03 22:57 48.77913 2.68148 2993 ft 190 kts 252°
2026-05-03 22:57 48.77550 2.66273 2991 ft 185 kts 252°
2026-05-03 22:57 48.77195 2.64387 2994 ft 186 kts 253°
2026-05-03 22:58 48.76841 2.62493 2994 ft 187 kts 253°
2026-05-03 22:58 48.76499 2.60646 2985 ft 173 kts 253°
2026-05-03 22:58 48.76196 2.58994 2938 ft 152 kts 253°
2026-05-03 22:58 48.75928 2.57530 2742 ft 137 kts 253°
2026-05-03 22:59 48.75680 2.56178 2534 ft 131 kts 253°
2026-05-03 22:59 48.75437 2.54854 2362 ft 130 kts 253°
2026-05-03 22:59 48.75195 2.53533 2178 ft 130 kts 253°
2026-05-03 22:59 48.74953 2.52215 2010 ft 130 kts 252°
2026-05-03 23:00 48.74710 2.50895 1833 ft 130 kts 252°
2026-05-03 23:00 48.74468 2.49581 1657 ft 129 kts 253°
2026-05-03 23:00 48.74227 2.48271 1478 ft 129 kts 252°
2026-05-03 23:00 48.73987 2.46965 1305 ft 129 kts 252°
2026-05-03 23:01 48.73746 2.45660 1137 ft 129 kts 253°
2026-05-03 23:01 48.73507 2.44353 948 ft 128 kts 253°
2026-05-03 23:01 48.73271 2.43069 833 ft 127 kts 252°
2026-05-03 23:01 48.73026 2.41746 579 ft 129 kts 252°
2026-05-03 23:02 48.72787 2.40460 433 ft 126 kts 252°
2026-05-03 23:02 48.72556 2.39184 306 ft 121 kts 253°
2026-05-03 23:02 48.72354 2.38110 302 ft 93 kts 253°
2026-05-03 23:02 48.72215 2.37328 301 ft 50 kts 255°
2026-05-03 23:03 48.72172 2.36954 301 ft 24 kts 273°
2026-05-03 23:03 48.72184 2.36717 298 ft 22 kts 274°
2026-05-03 23:03 48.72210 2.36499 300 ft 20 kts 300°
2026-05-03 23:03 48.72233 2.36438 302 ft 20 kts 302°
2026-05-03 23:04 48.72349 2.36283 298 ft 0 kts 345°
2026-05-03 23:04 48.72351 2.36282 298 ft 1 kts 345°
2026-05-03 23:04 48.72369 2.36274 301 ft 6 kts 345°
2026-05-03 23:04 48.72384 2.36267 299 ft 6 kts 338°
2026-05-03 23:05 48.72395 2.36076 298 ft 1 kts 256°
2026-05-03 23:05 48.72394 2.36071 298 ft 1 kts 256°
2026-05-03 23:05 48.72381 2.36002 299 ft 12 kts 254°
2026-05-03 23:06 48.72350 2.35836 297 ft 18 kts 254°
2026-05-03 23:06 48.72333 2.35738 297 ft 0 kts 253°
2026-05-03 23:06 48.72323 2.35686 298 ft 12 kts 254°
2026-05-03 23:07 48.72305 2.35564 298 ft 12 kts 276°
2026-05-03 23:08 48.72522 2.35332 299 ft 0 kts 344°
2026-05-03 23:08 48.72545 2.35322 298 ft 11 kts 344°
2026-05-03 23:08 48.72599 2.35281 300 ft 0 kts 288°
2026-05-03 23:09 48.72591 2.35213 299 ft 7 kts 254°
2026-05-03 23:09 48.72582 2.35162 298 ft 4 kts 253°
2026-05-03 23:09 48.72579 2.35151 299 ft 0 kts 253°